(27975) Mazurkiewicz = 1997 UJ1

Discovered at Prescott on 1997-10-23 by P. G. Comba.
(27975) Mazurkiewicz = 1997 UJ1

Stefan Mazurkiewicz (1888-1945) was a professor at the University of Warsaw and a founder of the contemporary Polish mathematics school. He worked mainly in probability theory and topology, where he solved some important problems that clarified the topological structure of the Euclidian plane. [Ref: Minor Planet Circ. 45342]

Orbit

Orbit type: Main Belt

Note: WebGL enabled browser required.

epoch2022-08-09.0
epoch JD2459800.5
perihelion date2020-07-24.98640
perihelion JD2459055.48640
argument of perihelion (°)20.52585
ascending node (°)25.11604
inclination (°)4.09179
eccentricity0.1200115
perihelion distance (AU)2.4052811
Tisserand w.r.t. Jupiter3.3
ΔV w.r.t. Earth (km/sec)9.8
semimajor axis (AU)2.7333096
mean anomaly (°)162.49305
mean daily motion (°/day)0.21810750
aphelion distance (AU)3.061
period (years)4.52
P-vector [x]0.69952015
P-vector [y]0.64529054
P-vector [z]0.30703693
Q-vector [x]-0.71397078
Q-vector [y]0.61288478
Q-vector [z]0.33855275
absolute magnitude15.63
phase slope0.15
uncertainty0
referenceMPO 719482
observations used855
oppositions17
arc length (days)8958
first opposition used1997
last opposition used2022
residual rms (arc-secs)0.67
perturbers coarse indicatorM-v
perturbers precise indicator003El
first observation date used1997-10-23.0
last observation date used2022-05-03.0
computer namePan
JD of orbit computation2456465.494700
perihelion JD uncertainty (days)1.2037E-04
argument of perihelion uncertainty (°)6.5336E-05
ascending node uncertainty (°)6.0486E-05
inclination uncertainty (°)6.0803E-06
eccentricity uncertainty 5.6335E-08
perihelion distance uncertainty (AU)1.5148E-07
Minimum Orbit Intersection Distances (in AU)
for orbit epoch: 2459800.5, reference: E2022-TD8
Mercury2.08587
Venus1.68387
Earth1.4153
Mars0.90716
Jupiter2.31502
Saturn6.51515
Uranus15.4923
Neptune27.3949

Observations

887 total observations over interval: 1997 10 23.27171 – 2022 05 03.648115
These data are available for download (format description).

Date (UT) J2000 RA J2000 Dec Magn Location Ref
1997 10 23.27171 01 51 38.89 +12 05 07.5 18.1 R 684 – Prescott MPS 125
1997 10 23.29707 01 51 37.28 +12 05 02.5   684 – Prescott MPS 125
1997 10 23.30328 01 51 37.05 +12 05 01.4   684 – Prescott MPS 125
1997 10 24.23880 01 50 45.65 +12 02 18.5   684 – Prescott MPS 125
1997 10 24.25881 01 50 44.50 +12 02 14.7   684 – Prescott MPS 125
1997 10 24.26620 01 50 44.05 +12 02 13.4 17.5 R 684 – Prescott MPS 125
1997 10 25.22659 01 49 51.28 +11 59 24.6   684 – Prescott MPS 125
1997 10 25.26523 01 49 49.07 +11 59 17.7 17.8 R 684 – Prescott MPS 125
1997 10 26.26095 01 48 54.52 +11 56 22.0 17.7 R 684 – Prescott MPS 126
1997 10 26.27747 01 48 53.59 +11 56 19.7   684 – Prescott MPS 126
1997 10 26.28381 01 48 53.25 +11 56 18.2   684 – Prescott MPS 126
1997 10 31.25990 01 44 25.30 +11 41 46.2 17.8 R 684 – Prescott MPS 126
1997 10 31.26415 01 44 25.06 +11 41 45.4   684 – Prescott MPS 126
1997 10 31.26742 01 44 24.89 +11 41 44.9   684 – Prescott MPS 126
1997 11 01.27659 01 43 32.09 +11 38 52.0 17.7 R 684 – Prescott MPS 126
1997 11 01.28058 01 43 31.89 +11 38 51.5   684 – Prescott MPS 126
1997 11 01.28449 01 43 31.68 +11 38 51.0   684 – Prescott MPS 126
1997 11 03.32103 01 41 47.27 +11 33 09.4 20.2   704 – Lincoln Laboratory ETS, New Mexico MPS 289
1997 11 03.35412 01 41 45.52 +11 33 00.8 20.6   704 – Lincoln Laboratory ETS, New Mexico MPS 289
1997 11 03.37058 01 41 44.61 +11 32 56.8   704 – Lincoln Laboratory ETS, New Mexico MPS 289
1997 11 03.38741 01 41 43.47 +11 32 55.1   704 – Lincoln Laboratory ETS, New Mexico MPS 289
1997 11 21.18906 01 29 50.72 +10 56 24.5 18.8 R 684 – Prescott MPS 201
1997 11 21.19479 01 29 50.55 +10 56 24.2   684 – Prescott MPS 201
1997 11 21.20081 01 29 50.37 +10 56 24.1   684 – Prescott MPS 201
1997 11 22.18166 01 29 24.23 +10 55 21.8 18.6 R 684 – Prescott MPS 201
1997 11 22.18722 01 29 24.12 +10 55 20.9   684 – Prescott MPS 201
1997 11 22.19266 01 29 23.89 +10 55 20.8   684 – Prescott MPS 201
1997 12 17.09354 01 27 35.92 +11 14 07.4 19.3 R 684 – Prescott MPS 289
1997 12 17.10093 01 27 36.06 +11 14 08.4   684 – Prescott MPS 289
1997 12 17.10837 01 27 36.16 +11 14 09.6   684 – Prescott MPS 289
1997 12 25.19168 01 30 44.94 +11 38 54.7 19.3 R 684 – Prescott MPS 289
1997 12 25.20029 01 30 45.10 +11 38 57.0   684 – Prescott MPS 289
1999 01 22.40734 10 48 51.86 +13 02 34.1 18.8 R 684 – Prescott MPS 3590
1999 01 22.41822 10 48 51.61 +13 02 36.1   684 – Prescott MPS 3590
1999 01 22.43333 10 48 51.06 +13 02 41.2   684 – Prescott MPS 3590
1999 01 23.41685 10 48 22.94 +13 06 05.9 19.3 R 684 – Prescott MPS 3590
1999 01 23.42696 10 48 22.51 +13 06 09.4 19.0 R 684 – Prescott MPS 3590
1999 02 09.32361 10 37 02.04 +14 17 10.8   684 – Prescott MPS 3806
1999 02 09.33042 10 37 01.55 +14 17 13.0 19.1 R 684 – Prescott MPS 3806
1999 02 11.33907 10 35 20.82 +14 26 28.1 19.2 R 684 – Prescott MPS 3806
1999 02 11.34925 10 35 20.27 +14 26 30.7 19.1 R 684 – Prescott MPS 3806
2000 05 03.31407 15 36 02.23 -22 10 30.5   684 – Prescott MPS 13506
2000 05 03.32113 15 36 01.86 -22 10 30.0   684 – Prescott MPS 13506
2000 05 05.32634 15 34 15.76 -22 07 08.7   684 – Prescott MPS 13506
2000 05 05.33181 15 34 15.44 -22 07 07.4   684 – Prescott MPS 13506
2000 06 24.25855 14 57 11.83 -20 16 34.4   684 – Prescott MPS 16378
2000 06 24.28145 14 57 11.42 -20 16 32.8   684 – Prescott MPS 16378
2000 06 25.21399 14 56 54.39 -20 15 19.7   684 – Prescott MPS 16378
2000 06 25.22434 14 56 54.25 -20 15 18.5   684 – Prescott MPS 16378
2001 07 24.41326 22 10 58.90 -17 27 35.4 18.9 R 684 – Prescott MPS 32191
2001 07 24.42098 22 10 58.62 -17 27 37.0   684 – Prescott MPS 32191
2001 07 25.37823 22 10 25.14 -17 31 18.0   684 – Prescott MPS 32191
2001 07 25.38271 22 10 25.00 -17 31 18.2 19.5 R 684 – Prescott MPS 32191
2001 08 15.32575 21 54 15.36 -18 57 33.2 20.5   608 – Haleakala-AMOS MPS 32732
2001 08 15.33623 21 54 14.81 -18 57 34.9 20.1   608 – Haleakala-AMOS MPS 32732
2001 08 15.34686 21 54 14.23 -18 57 37.4 20.0   608 – Haleakala-AMOS MPS 32732
2001 08 15.51534 21 54 04.81 -18 58 17.7 19.9   608 – Haleakala-AMOS MPS 32732
2001 08 15.52648 21 54 04.21 -18 58 20.0 20.4   608 – Haleakala-AMOS MPS 32732
2001 08 15.53739 21 54 03.57 -18 58 22.2 19.8   608 – Haleakala-AMOS MPS 32732
2001 08 16.29295 21 53 23.22 -19 01 19.9 19.0   704 – Lincoln Laboratory ETS, New Mexico MPS 32732
2001 08 16.30512 21 53 22.50 -19 01 22.1 18.7   704 – Lincoln Laboratory ETS, New Mexico MPS 32732
2001 08 16.31829 21 53 21.76 -19 01 26.6 18.9   704 – Lincoln Laboratory ETS, New Mexico MPS 32732
2001 08 19.27200 21 50 42.30 -19 12 36.1 19.1   704 – Lincoln Laboratory ETS, New Mexico MPS 33127
2001 08 19.28465 21 50 41.49 -19 12 39.5 19.1   704 – Lincoln Laboratory ETS, New Mexico MPS 33127
2001 08 19.29734 21 50 40.82 -19 12 41.6 19.0   704 – Lincoln Laboratory ETS, New Mexico MPS 33127
2001 08 19.31016 21 50 40.12 -19 12 44.9 19.3   704 – Lincoln Laboratory ETS, New Mexico MPS 33127
2001 08 19.32284 21 50 39.40 -19 12 46.6 19.2   704 – Lincoln Laboratory ETS, New Mexico MPS 33127
2001 08 23.22323 21 47 08.65 -19 26 26.6 18.7 R 699 – Lowell Observatory-LONEOS MPS 33127
2001 08 23.23421 21 47 07.98 -19 26 28.0   699 – Lowell Observatory-LONEOS MPS 33127
2001 08 23.24528 21 47 07.43 -19 26 30.2   699 – Lowell Observatory-LONEOS MPS 33127
2001 08 23.25623 21 47 06.80 -19 26 32.3   699 – Lowell Observatory-LONEOS MPS 33127
2001 09 11.20669 21 32 02.33 -20 07 41.3 19.7   704 – Lincoln Laboratory ETS, New Mexico MPS 35247
2001 09 11.22116 21 32 01.73 -20 07 42.0 19.4   704 – Lincoln Laboratory ETS, New Mexico MPS 35247
2001 09 11.23537 21 32 01.20 -20 07 42.8 20.0   704 – Lincoln Laboratory ETS, New Mexico MPS 35247
2001 09 12.24095 21 31 23.21 -20 08 31.5 18.6 R 695 – Kitt Peak MPS 38669
2001 09 12.28804 21 31 21.38 -20 08 33.5   695 – Kitt Peak MPS 38669
2002 12 06.38239 06 45 30.73 +28 56 21.0 19.6   704 – Lincoln Laboratory ETS, New Mexico MPS 69063
2002 12 06.39750 06 45 29.92 +28 56 22.7 19.8   704 – Lincoln Laboratory ETS, New Mexico MPS 69063
2002 12 06.42783 06 45 28.54 +28 56 25.4 19.5   704 – Lincoln Laboratory ETS, New Mexico MPS 69063
2002 12 11.37237 06 41 19.40 +29 09 31.7 18.3   704 – Lincoln Laboratory ETS, New Mexico MPS 69063
2002 12 11.38761 06 41 18.56 +29 09 34.1 18.9   704 – Lincoln Laboratory ETS, New Mexico MPS 69063
2002 12 11.40285 06 41 17.68 +29 09 36.0 19.1   704 – Lincoln Laboratory ETS, New Mexico MPS 69063
2002 12 11.41808 06 41 16.86 +29 09 38.0 18.9   704 – Lincoln Laboratory ETS, New Mexico MPS 69063
2002 12 11.43353 06 41 16.03 +29 09 40.7 18.9   704 – Lincoln Laboratory ETS, New Mexico MPS 69063
2002 12 14.29284 06 38 37.20 +29 16 35.5 18.6   704 – Lincoln Laboratory ETS, New Mexico MPS 69063
2002 12 14.30758 06 38 36.38 +29 16 37.6 18.9   704 – Lincoln Laboratory ETS, New Mexico MPS 69063
2002 12 14.32201 06 38 35.52 +29 16 39.1 19.3   704 – Lincoln Laboratory ETS, New Mexico MPS 69063
2002 12 14.33641 06 38 34.58 +29 16 42.0 19.2   704 – Lincoln Laboratory ETS, New Mexico MPS 69063
2002 12 14.35086 06 38 33.78 +29 16 43.2 19.4   704 – Lincoln Laboratory ETS, New Mexico MPS 69063
2002 12 15.29628 06 37 39.18 +29 18 52.7 19.4   704 – Lincoln Laboratory ETS, New Mexico MPS 69063
2002 12 15.32591 06 37 37.50 +29 18 57.0 19.5   704 – Lincoln Laboratory ETS, New Mexico MPS 69063
2002 12 15.34060 06 37 36.57 +29 18 59.2 19.1   704 – Lincoln Laboratory ETS, New Mexico MPS 69063
2003 01 05.23325 06 15 47.42 +29 45 37.4 18.8   704 – Lincoln Laboratory ETS, New Mexico MPS 70738
2003 01 05.24884 06 15 46.48 +29 45 37.2 19.0   704 – Lincoln Laboratory ETS, New Mexico MPS 70738
2003 01 05.26432 06 15 45.47 +29 45 37.8 19.7   704 – Lincoln Laboratory ETS, New Mexico MPS 70738
2003 01 05.27977 06 15 44.53 +29 45 38.1 19.3   704 – Lincoln Laboratory ETS, New Mexico MPS 70738
